Location: Fairmont
(43.6520°N, 94.4610°W)
Time: 09:59:50
(UTC-05:00)

Cosmos-2242 - Visible Passes

Search period start: 05 July 2015 00:00
Search period end: 15 July 2015 00:00
Orbit: 594 x 620 km, 82.5° (Epoch: 04 July)

Date Brightness Start Highest point End Pass type
(mag) Time Alt. Az. Time Alt. Az. Time Alt. Az.
07 Jul 5.9 04:54:05 10° ESE 04:56:11 14° E 04:58:29 10° NE visible
08 Jul 5.5 05:06:17 10° SE 05:09:37 23° E 05:13:04 10° NE visible
11 Jul 6.3 04:13:00 10° E 04:13:10 10° E 04:13:35 10° ENE visible
12 Jul 5.7 04:23:48 10° SE 04:26:33 17° E 04:29:28 10° NE visible
13 Jul 5.0 04:36:20 10° SSE 04:40:01 28° E 04:43:46 10° NNE visible
14 Jul 4.0 04:49:22 10° SSE 04:53:30 47° E 04:57:44 10° NNE visible
